User: anonymous
Location: Morehead State University
(38.1872°N, 83.4339°W)
Time: 02:56:02
(UTC-04:00)
Language:

Okean 2 - Orbit

View from above orbital plane
View from above orbital plane
View from above satellite
View from above satellite

Ground track
Ground track

The orbit data is extracted from the following two-line orbital elements,

1 20510U 90018A   14244.46658666  .00001173  00000-0  10184-3 0  8064
2 20510 082.5144 069.2410 0013544 176.3519 245.5991 14.96121645328787
Epoch (UTC): 01 September 2014 11:11:53
Eccentricity: 0.0013544
inclination: 82.5144°
perigee height: 569 km
apogee height: 588 km
right ascension of ascending node: 69.2410°
argument of perigee: 176.3519°
revolutions per day: 14.96121645
mean anomaly at epoch: 245.5991°
orbit number at epoch: 32878

The dashed part of the orbit path shows where the satellite is in the earth's shadow,  

DLR